Weather History for Estherville, IA

Change the Weather History Date:

Sunday, September 1, 2013

  Actual Average Record
Temperature  
Mean Temperature 66 °F 66 °F  
Max Temperature 77 °F 78 °F 97 °F (1953)
Min Temperature 54 °F 55 °F 37 °F (1949)
Degree Days  
Heating Degree Days 0 2  
Month to date heating degree days 0 2  
Since 1 July heating degree days 45 34  
Cooling Degree Days 1 3  
Month to date cooling degree days 1 3  
Year to date cooling degree days 595 543  
Growing Degree Days 18 (Base 50)    
Moisture  
Dew Point 61 °F    
Average Humidity 79    
Maximum Humidity 100    
Minimum Humidity 58    
Precipitation  
Precipitation T in 0.10 in 0.79 in (1979)
Month to date precipitation T 0.10  
Sea Level Pressure  
Sea Level Pressure 29.91 in    
Wind  
Wind Speed 10 mph (NNW)    
Max Wind Speed 22 mph    
Max Gust Speed 29 mph    
Visibility 10 miles    
Events Rain    
T = Trace of Precipitation, MM = Missing Value Source: NWS Daily Summary

Daily Weather History Graph

Daily Weather History Graph

Search for Another Location

Airport:

Trip Planner

Search our weather history database for the weather conditions in past years. The results will help you decide how hot, cold, wet, or windy it might be!

Date:

Astronomy

Sep. 01, 2013 Rise Set
Actual Time 6:43 AM CDT 7:53 PM CDT
Civil Twilight 6:13 AM CDT 8:23 PM CDT
Nautical Twilight 5:38 AM CDT 8:58 PM CDT
Astronomical Twilight 5:01 AM CDT 9:35 PM CDT
Moon 3:01 AM CDT (9/1) 5:35 PM CDT (9/1)
Length of Visible Light 14h 09m
Length of Day
13h 10m
Waning Crescent, 13% of the Moon is Illuminated
Sep 1
Waning Crescent
Sep 5
New
Sep 12
First Quarter
Sep 19
Full
Sep 26
Last Quarter

Hourly Weather History & Observations

Time (CDT) Temp. Dew Point Humidity Pressure Visibility Wind Dir Wind Speed Gust Speed Precip Events Conditions
12:52 AM 72.0 °F 71.1 °F 97% 29.79 in 10.0 mi NW 5.8 mph - 0.03 in Rain Light Rain
1:52 AM 70.0 °F 69.1 °F 97% 29.80 in 10.0 mi Variable 4.6 mph - 0.00 in   Clear
2:52 AM 68.0 °F 66.9 °F 96% 29.80 in 10.0 mi West 9.2 mph - N/A   Clear
3:52 AM 66.0 °F 66.0 °F 100% 29.79 in 10.0 mi West 3.5 mph - N/A   Clear
4:52 AM 64.9 °F 64.9 °F 100% 29.82 in 10.0 mi West 4.6 mph - N/A   Partly Cloudy
5:52 AM 64.9 °F 63.0 °F 93% 29.83 in 10.0 mi NNW 5.8 mph - N/A   Mostly Cloudy
6:52 AM 62.1 °F 60.1 °F 93% 29.86 in 10.0 mi WNW 5.8 mph - N/A   Clear
7:52 AM 63.0 °F 60.1 °F 90% 29.88 in 10.0 mi NW 5.8 mph - N/A   Clear
8:52 AM 66.0 °F 60.1 °F 81% 29.91 in 10.0 mi NNW 5.8 mph - N/A   Clear
9:52 AM 70.0 °F 60.1 °F 71% 29.92 in 10.0 mi NW 9.2 mph - N/A   Clear
10:52 AM 73.0 °F 61.0 °F 66% 29.91 in 10.0 mi NNW 10.4 mph 21.9 mph N/A   Clear
11:52 AM 75.0 °F 59.0 °F 57% 29.91 in 10.0 mi NNW 18.4 mph 25.3 mph N/A   Clear
12:52 PM 75.9 °F 60.1 °F 58% 29.91 in 10.0 mi NNW 18.4 mph 26.5 mph N/A   Partly Cloudy
1:52 PM 75.0 °F 60.1 °F 60% 29.91 in 10.0 mi NNW 18.4 mph 27.6 mph N/A   Mostly Cloudy
2:52 PM 73.9 °F 60.1 °F 62% 29.91 in 10.0 mi NNW 17.3 mph 26.5 mph N/A   Mostly Cloudy
3:52 PM 75.0 °F 60.1 °F 60% 29.91 in 10.0 mi NNW 13.8 mph 24.2 mph N/A   Mostly Cloudy
4:52 PM 73.9 °F 59.0 °F 59% 29.93 in 10.0 mi North 17.3 mph 23.0 mph N/A   Scattered Clouds
5:52 PM 73.0 °F 60.1 °F 64% 29.94 in 10.0 mi North 12.7 mph 19.6 mph N/A   Mostly Cloudy
6:52 PM 69.1 °F 57.9 °F 68% 29.96 in 10.0 mi NNW 10.4 mph 20.7 mph N/A   Partly Cloudy
7:17 PM 68.0 °F 57.2 °F 68% 29.98 in 10.0 mi NNW 9.2 mph - N/A   Mostly Cloudy
7:52 PM 66.9 °F 57.9 °F 73% 29.97 in 10.0 mi North 9.2 mph - N/A   Overcast
8:52 PM 64.9 °F 57.0 °F 75% 29.99 in 10.0 mi North 8.1 mph - N/A   Overcast
9:52 PM 64.0 °F 57.0 °F 78% 30.00 in 10.0 mi North 10.4 mph - N/A   Overcast
10:52 PM 62.1 °F 55.9 °F 80% 30.01 in 10.0 mi NNW 5.8 mph - N/A   Overcast
11:52 PM 59.0 °F 55.0 °F 87% 30.01 in 10.0 mi NNW 6.9 mph - N/A   Scattered Clouds